{"data":{"norad_id":29709,"intl_designator":"2007-001A","name":"LAPAN-TUBSAT","alt_names":[],"object_type":"PAYLOAD","status":"ACTIVE","operator":null,"country":"INDO","launch_date":"2007-01-10","launch_site_code":"SRILR","launch_vehicle":null,"mission":null,"orbit_class":"UNKNOWN","rcs_meters":0.363,"size_class":null,"mass_kg":null,"dimensions":null,"purposes":["earth_obs"],"wikipedia_slug":null,"has_3d_model":false,"image_url":null,"decayed_at":null,"tle_current":{"epoch":"2026-05-25T03:46:23.206656Z","epoch_age_seconds":58146,"freshness":"FRESH","line1":"1 29709U 07001A   26145.15721304  .00000804  00000+0  98682-4 0  9994","line2":"2 29709  98.1346 143.8637 0010714 260.6002  99.4001 14.85924164 47739","mean_motion":14.85924164,"eccentricity":0.0010714,"inclination_deg":98.1346,"raan_deg":143.8637,"arg_perigee_deg":260.6002,"mean_anomaly_deg":99.4001,"bstar":9.8682e-5,"rev_number":4773,"period_min":96.909387093055,"perigee_km":603.19875749166,"apogee_km":618.17440866548,"semimajor_km":6988.8235830786,"source":"CELESTRAK","updated_at":"2026-05-25T13:38:12.743941Z"}}}